Simultaneous Nadir Overpasses (SNOs) Predictions

Prediction of SNOs between GOES-14 and AQUA Satellite Orbit:

Table of predicted SNOs for the next 14.0 days since TLE Epoch: 3/6/2020
Index Date Time (GOES-14) GOES-14 Lat,Lon AQUA Lat,Lon Distance(km) Time Diff (sec)
1 03/08/2020 08:23:48 0.10,-104.19 -0.44,-101.73 279.20 80
2 03/08/2020 20:45:10 -0.10,-104.03 -0.69,-106.92 327.05 80
3 03/10/2020 20:30:17 -0.10,-104.03 -0.10,-103.94 9.74 80
4 03/12/2020 20:18:05 -0.10,-104.03 0.56,-100.99 346.40 80
5 03/13/2020 08:39:21 0.10,-104.17 0.52,-106.15 224.45 80
6 03/15/2020 08:29:48 0.10,-104.17 -0.08,-103.18 112.68 80
7 03/15/2020 20:51:11 -0.11,-104.05 -1.04,-108.36 490.95 80
8 03/17/2020 08:17:36 0.11,-104.18 -0.75,-100.22 449.87 80
9 03/17/2020 20:38:58 -0.11,-104.05 -0.43,-105.39 154.08 80
10 03/19/2020 20:24:06 -0.12,-104.04 0.25,-102.44 183.06 80
11 03/20/2020 08:45:22 0.12,-104.16 0.84,-107.60 390.44 80




NCC Satellite Simultaneous Nadir Overpasses (SNOs) Prediction Service
